BEIDOU-3 M3

Last updated on May 15, 2019, 3:07 a.m. UTC

1 43107U 18003A   19134.17229797 -.00000101  00000-0  00000+0 0  9991
2 43107  55.2417  31.3045 0005138  16.1092  79.8370  1.86232810  9108
UTC
Height (km)
Latitude
Longitude
Inclination
Orbital Period
UTC large
Height (km)
Speed (km/s)
/
Latitude / Longitude
Inclination (degrees)
Orbital Period (minutes)
Azimuth
Elevation
Range (km)
Doppler Factor
iOS Compass Heading
iOS Angle

Next 30 passes for location: Hong Kong

Rise time Rise Azimuth (degrees) Set time Set Azimuth (degrees) Duration Max altitude (degrees)

No matching passes for this satellites